Tracking 25612 objects as of 21-May-2022
HD Live streaming from Space Station
objects crossing your sky now

FORMOSAT7-3/COSMIC2-3

Track FORMOSAT7-3/COSMIC2-3 now!
10-day predictions


NORAD ID: 44343
Int'l Code: 2019-036E
Perigee: 538.7 km
Apogee: 553.1 km
Inclination: 24.0 °
Period: 95.4 minutes
Semi major axis: 6916 km
RCS: Unknown
Launch date: June 25, 2019
Source: Taiwan (Republic of China) (ROC)
Launch site: AIR FORCE EASTERN TEST RANGE (AFETR)
aabbcc
Your satellite tracking list
Your tracking list is empty




NASA's NSSDC Master Catalog

Two Line Element Set (TLE):
1 44343U 19036E   22140.24570816  .00006949  00000-0  40409-3 0  9997
2 44343  24.0011 339.4988 0010386  23.4698 336.6279 15.09172345158010
Source of the keplerian elements: AFSPC